Offutt Air Force Base, NE

11:17 PM CDT on September 26, 2016 (GMT -0500)
Offutt Air Force Base

Weather History for KOFF - May, 2012

Change the Weather History Date:

Thursday, May 17, 2012

  Actual Average Record
Temperature  
Mean Temperature 73 °F -  
Max Temperature 90 °F 71 °F 90 °F (2012)
Min Temperature 57 °F 51 °F 35 °F (2014)
Cooling Degree Days 8    
Growing Degree Days 23 (Base 50)    
Moisture  
Dew Point 49 °F    
Average Humidity 44    
Maximum Humidity 63    
Minimum Humidity 24    
Precipitation  
Precipitation 0.00 in - - ()
Sea Level Pressure  
Sea Level Pressure 29.85 in    
Wind  
Wind Speed 12 mph (SE)    
Max Wind Speed 23 mph    
Max Gust Speed 32 mph    
Visibility 10 miles    
Events      
Averages and records for this station are not official NWS values.
T = Trace of Precipitation, MM = Missing Value Source: NWS Daily Summary

Daily Weather History Graph

Daily Weather History Graph

Search for Another Location

Airport or City:

Trip Planner

Search our weather history database for the weather conditions in past years. The results will help you decide how hot, cold, wet, or windy it might be!

Date:

Astronomy

May. 17, 2012 Rise Set
Actual Time 6:03 AM CDT 8:37 PM CDT
Civil Twilight 5:31 AM CDT 9:09 PM CDT
Nautical Twilight 4:52 AM CDT 9:48 PM CDT
Astronomical Twilight 4:07 AM CDT 10:33 PM CDT
Moon 4:03 AM CDT (5/17) 5:49 PM CDT (5/17)
Length of Visible Light 15h 37m
Length of Day
14h 34m
Waning Crescent, 9% of the Moon is Illuminated
May 17
Waning Crescent
May 20
New
May 28
First Quarter
Jun 4
Full
Jun 11
Last Quarter

Hourly Weather History & Observations

Time (CDT) Temp. Dew Point Humidity Pressure Visibility Wind Dir Wind Speed Gust Speed Precip Events Conditions
12:55 AM 61.9 °F 43.3 °F 51% 29.96 in 10.0 mi SE 6.9 mph - N/A   Clear
1:55 AM 59.7 °F 44.1 °F 56% 29.94 in 10.0 mi ESE 9.2 mph - N/A   Clear
2:55 AM 57.4 °F 44.6 °F 62% 29.93 in 10.0 mi ESE 6.9 mph - N/A   Clear
3:55 AM 57.2 °F 44.8 °F 63% 29.94 in 10.0 mi SE 6.9 mph - N/A   Clear
4:55 AM 57.7 °F 44.6 °F 62% 29.93 in 10.0 mi ESE 8.1 mph - N/A   Clear
5:55 AM 58.3 °F 44.6 °F 60% 29.92 in 10.0 mi ESE 11.5 mph - N/A   Clear
6:55 AM 59.2 °F 44.8 °F 59% 29.94 in 10.0 mi ESE 9.2 mph - N/A   Clear
7:55 AM 63.0 °F 46.4 °F 55% 29.93 in 10.0 mi SE 12.7 mph - N/A   Clear
8:55 AM 67.6 °F 46.9 °F 47% 29.91 in 10.0 mi SE 17.3 mph 23.0 mph N/A   Clear
9:55 AM 72.5 °F 48.6 °F 43% 29.90 in 10.0 mi SSE 17.3 mph 26.5 mph N/A   Clear
10:55 AM 77.4 °F 49.6 °F 38% 29.89 in 10.0 mi SSE 18.4 mph - N/A   Clear
11:55 AM 81.7 °F 50.5 °F 34% 29.87 in 10.0 mi SSE 17.3 mph - N/A   Partly Cloudy
12:55 PM 84.4 °F 50.7 °F 31% 29.85 in 10.0 mi SE 16.1 mph - N/A   Clear
1:55 PM 86.9 °F 51.4 °F 29% 29.82 in 10.0 mi SSE 19.6 mph 26.5 mph N/A   Clear
2:55 PM 88.3 °F 51.4 °F 28% 29.79 in 10.0 mi SSE 17.3 mph 25.3 mph N/A   Clear
3:55 PM 88.3 °F 49.1 °F 26% 29.77 in 10.0 mi SSE 20.7 mph 26.5 mph N/A   Clear
4:55 PM 89.1 °F 47.3 °F 24% 29.75 in 10.0 mi SSE 23.0 mph 32.2 mph N/A   Clear
5:55 PM 88.5 °F 48.6 °F 25% 29.75 in 10.0 mi SSE 23.0 mph 31.1 mph N/A   Clear
6:55 PM 86.7 °F 50.2 °F 28% 29.75 in 10.0 mi SSE 18.4 mph 26.5 mph N/A   Clear
7:55 PM 84.0 °F 52.9 °F 34% 29.75 in 10.0 mi SSE 19.6 mph - N/A   Clear
8:55 PM 79.7 °F 55.6 °F 43% 29.75 in 10.0 mi SE 17.3 mph 25.3 mph N/A   Clear
9:55 PM 76.1 °F 55.8 °F 49% 29.78 in 10.0 mi ESE 13.8 mph - N/A   Clear
10:55 PM 74.1 °F 55.8 °F 53% 29.78 in 10.0 mi SE 16.1 mph 21.9 mph N/A   Clear
11:55 PM 72.7 °F 54.5 °F 53% 29.78 in 10.0 mi SE 13.8 mph - N/A   Clear